| time (UTC) | temp F | wind direction | speed MPH | gust MPH | rain 1hr in | rain 24hr in | rain mn in | humidity % | barometer mb |
| 20260504050018 | 53 | 165 | 0.0 | 2.0 | 0.00 | 0.00 | 0.00 | 74 | 1013.1 |
| 20260504044515 | 52 | 138 | 0.0 | 5.0 | 0.00 | 0.00 | 0.00 | 71 | 1013.1 |
| 20260504043010 | 52 | 152 | 0.0 | 1.0 | 0.00 | 0.00 | 0.00 | 76 | 1013.2 |
| 20260504041504 | 52 | 208 | 0.0 | 0.0 | 0.00 | 0.00 | 0.00 | 77 | 1013.1 |
| 20260504040116 | 51 | 114 | 0.0 | 1.0 | 0.00 | 0.00 | 0.00 | 78 | 1013.4 |
| 20260504034634 | 50 | 139 | 0.0 | 0.0 | 0.00 | 0.00 | 0.00 | 79 | 1013.5 |
| 20260504033059 | 50 | 145 | 0.0 | 1.0 | 0.00 | 0.00 | 0.00 | 80 | 1013.6 |
| 20260504031559 | 50 | 145 | 0.0 | 1.0 | 0.00 | 0.00 | 0.00 | 79 | 1013.7 |
| 20260504030121 | 50 | 129 | 0.0 | 0.0 | 0.00 | 0.00 | 0.00 | 78 | 1014.1 |
| 20260504024601 | 50 | 130 | 0.0 | 0.0 | 0.00 | 0.00 | 0.00 | 77 | 1014.1 |
| 20260504023057 | 50 | 129 | 0.0 | 0.0 | 0.00 | 0.00 | 0.00 | 76 | 1014.0 |
| 20260504021558 | 50 | 129 | 0.0 | 0.0 | 0.00 | 0.00 | 0.00 | 74 | 1014.2 |
| 20260504020106 | 52 | 129 | 0.0 | 0.0 | 0.00 | 0.00 | 0.00 | 70 | 1014.2 |
| 20260504014604 | 53 | 129 | 0.0 | 0.0 | 0.00 | 0.00 | 0.00 | 69 | 1014.3 |
| 20260504013057 | 54 | 129 | 0.0 | 0.0 | 0.00 | 0.00 | 0.00 | 66 | 1014.3 |
| 20260504011555 | 55 | 129 | 0.0 | 0.0 | 0.00 | 0.00 | 0.00 | 63 | 1014.1 |
| 20260504010054 | 56 | 129 | 0.0 | 0.0 | 0.00 | 0.00 | 0.00 | 63 | 1013.9 |
| 20260504004554 | 57 | 129 | 0.0 | 0.0 | 0.00 | 0.00 | 0.00 | 59 | 1013.6 |
| 20260504003054 | 59 | 129 | 0.0 | 0.0 | 0.00 | 0.00 | 0.00 | 57 | 1013.4 |
| 20260504001605 | 60 | 129 | 0.0 | 0.0 | 0.00 | 0.00 | 0.00 | 52 | 1013.3 |
| 20260504000056 | 61 | 124 | 0.0 | 3.0 | 0.00 | 0.00 | 0.00 | 49 | 1013.3 |
| 20260503234551 | 61 | 172 | 1.0 | 4.0 | 0.00 | 0.00 | 0.00 | 45 | 1013.4 |
| 20260503233050 | 62 | 148 | 0.0 | 5.0 | 0.00 | 0.00 | 0.00 | 44 | 1013.3 |
| 20260503231552 | 63 | 121 | 1.0 | 7.0 | 0.00 | 0.00 | 0.00 | 41 | 1013.4 |
| 20260503230051 | 63 | 207 | 1.0 | 7.0 | 0.00 | 0.00 | 0.00 | 40 | 1013.7 |
| 20260503224544 | 63 | 160 | 0.0 | 3.0 | 0.00 | 0.00 | 0.00 | 42 | 1014.0 |
| 20260503223043 | 63 | 158 | 0.0 | 2.0 | 0.00 | 0.00 | 0.00 | 41 | 1014.3 |
| 20260503221544 | 64 | 225 | 0.0 | 3.0 | 0.00 | 0.00 | 0.00 | 40 | 1014.6 |
| 20260503220039 | 64 | 186 | 0.0 | 6.0 | 0.00 | 0.00 | 0.00 | 39 | 1014.5 |
| 20260503214538 | 64 | 359 | 0.0 | 4.0 | 0.00 | 0.00 | 0.00 | 38 | 1014.9 |
| 20260503213042 | 64 | 134 | 2.0 | 8.0 | 0.00 | 0.00 | 0.00 | 37 | 1015.1 |
| 20260503211537 | 64 | 146 | 2.0 | 8.0 | 0.00 | 0.00 | 0.00 | 37 | 1015.0 |
| 20260503210034 | 64 | 259 | 1.0 | 5.0 | 0.00 | 0.00 | 0.00 | 38 | 1015.0 |
| 20260503204532 | 64 | 124 | 3.0 | 10.0 | 0.00 | 0.00 | 0.00 | 37 | 1015.5 |
| 20260503203026 | 63 | 68 | 1.0 | 6.0 | 0.00 | 0.00 | 0.00 | 38 | 1015.6 |
| 20260503201525 | 63 | 359 | 0.0 | 6.0 | 0.00 | 0.00 | 0.00 | 38 | 1016.0 |
| 20260503200023 | 63 | 356 | 0.0 | 7.0 | 0.00 | 0.00 | 0.00 | 36 | 1016.1 |
| 20260503194519 | 63 | 354 | 0.0 | 5.0 | 0.00 | 0.00 | 0.00 | 38 | 1016.8 |
| 20260503193017 | 62 | 153 | 2.0 | 7.0 | 0.00 | 0.00 | 0.00 | 37 | 1017.1 |
| 20260503191515 | 62 | 285 | 0.0 | 5.0 | 0.00 | 0.00 | 0.00 | 36 | 1017.4 |
| 20260503190034 | 62 | 156 | 0.0 | 6.0 | 0.00 | 0.00 | 0.00 | 37 | 1017.7 |
| 20260503184510 | 62 | 172 | 0.0 | 6.0 | 0.00 | 0.00 | 0.00 | 38 | 1017.8 |
| 20260503183014 | 61 | 117 | 1.0 | 5.0 | 0.00 | 0.00 | 0.00 | 39 | 1017.8 |
| 20260503181506 | 61 | 177 | 1.0 | 6.0 | 0.00 | 0.00 | 0.00 | 36 | 1018.3 |
| 20260503180009 | 61 | 257 | 2.0 | 10.0 | 0.00 | 0.00 | 0.00 | 37 | 1018.4 |
| 20260503174505 | 61 | 203 | 2.0 | 6.0 | 0.00 | 0.00 | 0.00 | 38 | 1018.6 |
| 20260503173115 | 60 | 138 | 2.0 | 7.0 | 0.00 | 0.00 | 0.00 | 38 | 1018.8 |
| 20260503171559 | 61 | 192 | 1.0 | 5.0 | 0.00 | 0.00 | 0.00 | 38 | 1019.1 |
| 20260503081545 | 33 | 20 | 0.0 | 0.0 | 0.00 | 0.00 | 0.00 | 92 | 1019.4 |
| 20260503071540 | 34 | 20 | 0.0 | 0.0 | 0.00 | 0.00 | 0.00 | 92 | 1019.0 |